Location: Unspecified
(0.0000°N, 0.0000°E)
Time: 15:21:58
(UTC+01:00)

Tiros 1 despin weight - All Passes

Search period start: 27 November 2014 00:00
Search period end: 07 December 2014 00:00
Orbit: 600 x 651 km, 48.2° (Epoch: 27 November)

Date Brightness Start Highest point End Pass type
(mag) Time Alt. Az. Time Alt. Az. Time Alt. Az.
27 Nov - 03:30:10 10° NNE 03:32:39 14° NE 03:35:07 10° E visible
27 Nov - 05:09:47 10° NW 05:14:15 45° SW 05:18:42 10° SSE visible
27 Nov - 15:38:37 10° S 15:42:03 22° SE 15:45:29 10° E daylight
27 Nov - 17:19:51 10° WSW 17:23:34 26° NW 17:27:20 10° N daylight
28 Nov - 03:47:12 10° NNW 03:51:34 38° NE 03:55:54 10° ESE visible
28 Nov - 05:30:09 10° W 05:33:08 17° SW 05:36:06 10° S visible
28 Nov - 15:56:30 10° SSW 16:00:54 64° SE 16:05:19 10° NE daylight
29 Nov - 04:05:43 10° NW 04:10:24 74° SW 04:15:03 10° SSE visible
29 Nov - 14:35:54 10° SSE 14:38:10 14° SE 14:40:27 10° E daylight
29 Nov - 16:15:32 10° WSW 16:19:43 41° NW 16:23:56 10° NNE daylight
30 Nov - 02:43:50 10° N 02:47:40 24° NE 02:51:29 10° ESE night (unlit)
30 Nov - 04:25:20 10° WNW 04:29:14 26° SW 04:33:07 10° S visible
30 Nov - 14:52:54 10° SSW 14:57:02 38° SE 15:01:11 10° ENE daylight
30 Nov - 16:36:06 10° W 16:38:35 15° NW 16:41:06 10° NNW daylight
01 Dec - 03:01:49 10° NNW 03:06:30 69° NE 03:11:10 10° SE visible
01 Dec - 15:11:26 10° SW 15:15:50 68° NW 15:20:16 10° NNE daylight
02 Dec - 01:40:50 10° NNE 01:43:43 16° NE 01:46:35 10° E night (unlit)
02 Dec - 03:20:53 10° WNW 03:25:18 40° SW 03:29:42 10° SSE visible
02 Dec - 13:49:32 10° S 13:53:08 24° SE 13:56:44 10° ENE daylight
02 Dec - 15:31:09 10° WSW 15:34:39 23° NW 15:38:11 10° N daylight
03 Dec - 01:58:05 10° NNW 02:02:34 43° NE 02:07:01 10° ESE night (unlit)
03 Dec - 03:41:27 10° W 03:44:09 15° SW 03:46:51 10° SSW visible
03 Dec - 14:07:31 10° SSW 14:11:56 73° SE 14:16:21 10° NE daylight
04 Dec - 02:16:40 10° NW 02:21:21 65° SW 02:26:01 10° SSE night (unlit)
04 Dec - 12:46:32 10° SSE 12:49:11 15° SE 12:51:48 10° E daylight
04 Dec - 14:26:38 10° WSW 14:30:43 36° NW 14:34:47 10° NNE daylight
05 Dec - 00:54:34 10° N 00:58:34 27° NE 01:02:34 10° ESE night (unlit)
05 Dec - 02:36:24 10° WNW 02:40:08 23° SW 02:43:53 10° S night (unlit)
05 Dec - 13:03:46 10° SSW 13:07:59 43° SE 13:12:12 10° ENE daylight
05 Dec - 14:47:31 10° WNW 14:49:32 13° NW 14:51:34 10° NNW daylight
06 Dec - 01:12:38 10° NW 01:17:21 78° NE 01:22:04 10° SE night (unlit)
06 Dec - 13:22:23 10° SW 13:26:45 60° NW 13:31:06 10° NNE daylight
06 Dec - 23:51:21 10° N 23:54:32 18° NE 23:57:42 10° E night (unlit)
